sat.trackr.live / text

‹ back to catalog

STARLINK-6323

NORAD 56524 · 2023-065X

PAYLOAD ACTIVE UNKNOWN

§ Identity

Operator
Country
US
Launch date
2023-05-14
Launch site
AFETR
Launch vehicle
Mass (kg)
RCS (m²)

Purposes: comms

External: N2YO · Heavens-Above · Gunter

§ Orbital elements

Epoch: 2026-05-25T01:07:25.122720Z

Period
94.27 min
Inclination
43.0032°
Eccentricity
0.0001683
Mean motion
15.27577268 rev/d
Perigee alt
481.9 km
Apogee alt
484.2 km
Semi-major
6,861.2 km
B*
2.4409e-5
RAAN
141.5877°
Arg perigee
288.2600°
Mean anomaly
71.8069°
Rev number
16,827

§ Raw data

STARLINK-63231 56524U 23065X   26145.04681855  .00000409  00000+0  24409-4 0  99982 56524  43.0032 141.5877 0001683 288.2600  71.8069 15.27577268168278

JSON: /api/v1/satellites/56524 · /tle

For live sub-satellite position, see the globe view (requires WebGL).

§ Visibility from observer

Set your observer location to see the next 7 days of passes ≥ 10°. The values pass through the URL so the page stays shareable.

No JS? Fill the form by hand. The geolocation button needs JavaScript.